FW4250 Weather Reports


time (UTC)temp
C
wind
direction
speed
KPH
gust
KPH
rain 1hr
cm
rain 24hr
cm
rain mn
cm
humidity
%
barometer
mb
20260507041049 15 182 0.0 0.0 0.00 0.00 0.00 80 990.0
20260507040551 15 182 0.0 0.0 0.00 0.00 0.00 80 989.9
20260507040055 15 182 0.0 0.0 0.00 0.00 0.00 80 989.8
20260507035548 16 182 0.0 0.0 0.00 0.00 0.00 80 989.8
20260507035048 16 182 0.0 0.0 0.00 0.00 0.00 79 989.7
20260507034550 16 182 0.0 0.0 0.00 0.00 0.00 79 989.6
20260507034047 16 182 0.0 0.0 0.00 0.00 0.00 79 989.5
20260507033548 16 182 0.0 0.0 0.00 0.00 0.00 78 989.5
20260507033050 16 182 0.0 0.0 0.00 0.00 0.00 78 989.5
20260507032548 16 182 0.0 4.8 0.00 0.00 0.00 77 989.4
20260507032048 16 182 0.0 4.8 0.00 0.00 0.00 77 989.4
20260507031547 16 182 0.0 0.0 0.00 0.00 0.00 76 989.3
20260507031047 16 182 0.0 4.8 0.00 0.00 0.00 75 989.3
20260507030547 17 182 0.0 4.8 0.00 0.00 0.00 74 989.2
20260507030049 17 182 1.6 6.4 0.00 0.00 0.00 74 989.2
20260507025546 17 182 1.6 4.8 0.00 0.00 0.00 73 989.1
20260507025046 17 182 0.0 1.6 0.00 0.00 0.00 73 989.0
20260507024546 17 182 0.0 1.6 0.00 0.00 0.00 72 989.0
20260507024046 17 182 0.0 1.6 0.00 0.00 0.00 72 989.0
20260507023546 17 182 0.0 4.8 0.00 0.00 0.00 72 988.9
20260507023056 18 182 1.6 4.8 0.00 0.00 0.00 71 989.0
20260507022646 18 182 1.6 6.4 0.00 0.00 0.00 70 989.0
20260507022045 18 182 1.6 8.0 0.00 0.00 0.00 70 988.8
20260507021550 18 182 3.2 8.0 0.00 0.00 0.00 69 988.9
20260507021048 18 181 4.8 8.0 0.00 0.00 0.00 69 988.8
20260507020545 18 185 4.8 8.0 0.00 0.00 0.00 68 988.8
20260507020045 19 198 3.2 8.0 0.00 0.00 0.00 68 988.9
20260507015544 19 209 4.8 9.7 0.00 0.00 0.00 67 988.9
20260507015044 19 202 4.8 12.9 0.00 0.00 0.00 67 988.9
20260507014556 19 187 6.4 11.3 0.00 0.00 0.00 67 988.9
20260507014044 20 194 6.4 11.3 0.00 0.00 0.00 66 988.8
20260507013543 20 173 8.0 11.3 0.00 0.00 0.00 66 988.8
20260507013103 20 199 6.4 11.3 0.00 0.00 0.00 66 988.9
20260507012543 20 180 8.0 12.9 0.00 0.00 0.00 66 988.8
20260507012044 20 190 6.4 12.9 0.00 0.00 0.00 65 988.9
20260507011544 20 181 4.8 12.9 0.00 0.00 0.00 66 988.8
20260507011042 20 145 4.8 12.9 0.00 0.00 0.00 65 988.8
20260507010542 20 178 6.4 11.3 0.00 0.00 0.00 65 988.8
20260507010042 20 196 8.0 12.9 0.00 0.00 0.00 65 988.9
20260507005542 21 174 8.0 12.9 0.00 0.00 0.00 65 988.7
20260507005042 21 196 4.8 8.0 0.00 0.00 0.00 65 988.9
20260507004541 21 198 3.2 9.7 0.00 0.00 0.00 65 988.9
20260507004041 21 188 4.8 9.7 0.00 0.00 0.00 65 988.9
20260507003541 21 187 3.2 11.3 0.00 0.00 0.00 65 988.9
20260507003041 21 190 6.4 11.3 0.00 0.00 0.00 64 988.9
20260507002540 21 182 4.8 11.3 0.00 0.00 0.00 65 988.8
20260507002040 21 175 6.4 12.9 0.00 0.00 0.00 64 988.9
20260507001554 21 199 4.8 11.3 0.00 0.00 0.00 65 988.8
20260507001043 21 198 6.4 12.9 0.00 0.00 0.00 65 988.9
20260507000540 21 215 6.4 14.5 0.00 0.00 0.00 65 988.8
20260507000040 21 206 8.0 12.9 0.00 0.00 0.00 64 988.8
20260506235539 21 193 8.0 12.9 0.00 0.00 0.00 64 988.8
20260506235039 21 192 6.4 12.9 0.00 0.00 0.00 64 988.7
20260506234539 21 179 6.4 12.9 0.00 0.00 0.00 64 988.8
20260506234043 21 199 6.4 14.5 0.00 0.00 0.00 64 988.8
20260506233542 21 215 8.0 14.5 0.00 0.00 0.00 64 988.8
20260506233044 21 197 8.0 12.9 0.00 0.00 0.00 63 988.8
20260506232537 21 184 8.0 14.5 0.00 0.00 0.00 63 988.8
20260506232037 21 187 6.4 16.1 0.00 0.00 0.00 63 988.8
20260506231540 21 165 9.7 16.1 0.00 0.00 0.00 63 988.9
20260506231037 21 188 8.0 12.9 0.00 0.00 0.00 63 989.0
20260506230536 21 175 8.0 16.1 0.00 0.00 0.00 64 989.0
20260506230035 21 181 8.0 16.1 0.00 0.00 0.00 63 989.1
20260506225535 22 219 8.0 12.9 0.00 0.00 0.00 63 989.1
20260506225034 21 202 6.4 12.9 0.00 0.00 0.00 63 989.3
20260506224533 21 182 6.4 11.3 0.00 0.00 0.00 63 989.4
20260506224034 22 218 6.4 12.9 0.00 0.00 0.00 64 989.6
20260506223532 22 192 8.0 12.9 0.00 0.00 0.00 64 989.6
20260506223032 21 198 6.4 17.7 0.00 0.00 0.00 64 989.7
20260506222531 21 173 9.7 17.7 0.00 0.00 0.00 63 989.7
20260506222033 21 210 6.4 14.5 0.00 0.00 0.00 64 989.8
20260506221530 21 205 8.0 16.1 0.00 0.00 0.00 63 989.9
20260506221030 21 194 8.0 14.5 0.00 0.00 0.00 63 989.9
20260506220529 21 194 6.4 14.5 0.00 0.00 0.00 64 990.0
20260506220029 21 246 8.0 14.5 0.00 0.00 0.00 63 990.0
20260506215528 21 190 8.0 14.5 0.00 0.00 0.00 63 990.1
20260506215028 22 186 8.0 16.1 0.00 0.00 0.00 64 990.2
20260506214527 21 175 9.7 16.1 0.00 0.00 0.00 63 990.2
20260506214027 21 115 9.7 16.1 0.00 0.00 0.00 64 990.3
20260506213526 21 205 9.7 16.1 0.00 0.00 0.00 63 990.5
20260506213026 21 204 6.4 14.5 0.00 0.00 0.00 64 990.5
20260506212526 21 186 8.0 17.7 0.00 0.00 0.00 64 990.5
20260506212026 21 209 9.7 17.7 0.00 0.00 0.00 64 990.7
20260506211525 21 188 8.0 16.1 0.00 0.00 0.00 65 990.7
20260506211025 21 158 9.7 17.7 0.00 0.00 0.00 64 990.7
20260506210524 21 175 8.0 17.7 0.00 0.00 0.00 64 990.9
20260506210026 21 163 6.4 19.3 0.00 0.00 0.00 65 990.8
20260506205525 21 169 11.3 19.3 0.00 0.00 0.00 63 990.8
20260506205024 21 215 8.0 16.1 0.00 0.00 0.00 65 990.7
20260506204525 21 164 6.4 19.3 0.00 0.00 0.00 64 990.8
20260506204025 21 192 12.9 19.3 0.00 0.00 0.00 64 990.8
20260506203524 21 185 8.0 14.5 0.00 0.00 0.00 66 990.8
20260506203024 21 215 4.8 16.1 0.00 0.00 0.00 65 990.8
20260506202523 21 170 9.7 16.1 0.00 0.00 0.00 65 990.9
20260506202024 21 167 4.8 17.7 0.00 0.00 0.00 65 991.0
20260506201523 21 169 8.0 16.1 0.00 0.00 0.00 64 991.0
20260506201023 21 173 9.7 17.7 0.00 0.00 0.00 65 990.9
20260506200522 21 203 9.7 17.7 0.00 0.00 0.00 64 991.0
20260506200023 21 173 9.7 17.7 0.00 0.00 0.00 64 991.0
20260506195523 21 222 11.3 17.7 0.00 0.00 0.00 65 991.0
20260506195022 21 209 6.4 16.1 0.00 0.00 0.00 65 991.0
20260506194522 21 198 8.0 19.3 0.00 0.00 0.00 65 991.1
20260506194023 21 185 9.7 19.3 0.00 0.00 0.00 64 991.0
20260506193520 21 114 8.0 22.5 0.00 0.00 0.00 64 991.1
20260506193020 21 178 9.7 22.5 0.00 0.00 0.00 64 991.1
20260506192518 21 188 8.0 16.1 0.00 0.00 0.00 65 991.0
20260506192017 21 184 6.4 16.1 0.00 0.00 0.00 64 991.1
20260506191518 21 238 6.4 12.9 0.00 0.00 0.00 65 991.1
20260506191017 20 207 6.4 16.1 0.00 0.00 0.00 64 991.2
20260506190519 21 144 6.4 16.1 0.00 0.00 0.00 65 991.1
20260506190014 20 166 9.7 16.1 0.00 0.00 0.00 64 991.1
20260506185514 20 219 6.4 12.9 0.00 0.00 0.00 65 991.2
20260506185014 20 228 6.4 11.3 0.00 0.00 0.00 66 991.2
20260506184512 20 231 6.4 12.9 0.00 0.00 0.00 66 991.3
20260506184011 20 184 8.0 12.9 0.00 0.00 0.00 65 991.4
20260506183512 20 239 8.0 12.9 0.00 0.00 0.00 65 991.3
20260506183009 20 215 4.8 12.9 0.00 0.00 0.00 64 991.3
20260506182509 20 226 6.4 14.5 0.00 0.00 0.00 65 991.4
20260506182010 20 202 6.4 12.9 0.00 0.00 0.00 65 991.4
20260506181505 20 214 4.8 9.7 0.00 0.00 0.00 67 991.6
20260506181007 19 274 1.6 9.7 0.00 0.00 0.00 65 991.6
20260506180503 19 179 4.8 9.7 0.00 0.00 0.00 65 991.6
20260506180002 19 189 3.2 17.7 0.00 0.00 0.00 65 991.7
20260506175502 19 194 6.4 17.7 0.00 0.00 0.00 65 991.7
20260506175100 18 303 3.2 11.3 0.00 0.00 0.00 67 991.6
20260506174559 19 213 4.8 11.3 0.00 0.00 0.00 66 991.7
20260506174058 18 270 4.8 11.3 0.00 0.00 0.00 67 991.8
20260506173556 18 162 6.4 12.9 0.00 0.00 0.00 67 991.8
20260506173116 18 202 1.6 11.3 0.00 0.00 0.00 67 991.8
20260506172555 18 231 4.8 11.3 0.00 0.00 0.00 66 991.7
20260506172052 18 159 6.4 12.9 0.00 0.00 0.00 66 991.6
20260506171559 18 180 3.2 12.9 0.00 0.00 0.00 66 991.6
20260506171051 18 212 4.8 8.0 0.00 0.00 0.00 66 991.7
20260506170550 18 187 3.2 8.0 0.00 0.00 0.00 68 991.7
20260506170048 17 231 3.2 9.7 0.00 0.00 0.00 67 991.7
20260506165547 18 208 4.8 11.3 0.00 0.00 0.00 68 991.7
20260506165046 17 188 6.4 9.7 0.00 0.00 0.00 68 991.8
20260506164545 17 106 1.6 11.3 0.00 0.00 0.00 67 991.8
20260506164043 17 109 4.8 11.3 0.00 0.00 0.00 69 991.7
20260506163542 17 171 1.6 9.7 0.00 0.00 0.00 69 991.7
20260506163047 17 171 4.8 11.3 0.00 0.00 0.00 71 991.8
20260506162539 17 150 4.8 11.3 0.00 0.00 0.00 69 991.8
20260506162039 17 148 4.8 11.3 0.00 0.00 0.00 70 991.8
20260506161548 16 132 3.2 9.7 0.00 0.00 0.00 71 991.8
20260506161034 16 179 4.8 9.7 0.00 0.00 0.00 73 991.7
20260506160535 16 178 4.8 14.5 0.00 0.00 0.00 72 991.8
20260506160032 16 182 4.8 14.5 0.00 0.00 0.00 74 991.7
20260506155530 15 161 3.2 8.0 0.00 0.08 0.00 76 991.8
20260506155029 15 160 3.2 8.0 0.00 0.08 0.00 76 991.8
20260506154527 15 152 3.2 8.0 0.00 0.08 0.00 76 991.9
20260506154026 14 107 0.0 4.8 0.00 0.08 0.00 77 991.8
20260506153526 14 107 0.0 6.4 0.00 0.08 0.00 77 991.7
20260506153024 14 29 1.6 4.8 0.00 0.08 0.00 77 991.8
20260506152522 13 25 0.0 4.8 0.00 0.08 0.00 79 991.9
20260506152021 13 25 0.0 4.8 0.00 0.08 0.00 81 991.9
20260506151520 13 25 1.6 4.8 0.00 0.08 0.00 83 991.9
20260506151018 12 24 1.6 4.8 0.00 0.08 0.00 85 991.8
20260506150517 12 20 0.0 1.6 0.00 0.08 0.00 88 991.8
20260506150022 11 19 0.0 3.2 0.00 0.08 0.00 89 991.8
20260506145513 11 19 0.0 3.2 0.00 0.08 0.00 92 991.7
20260506145012 11 19 0.0 4.8 0.00 0.08 0.00 92 991.8
20260506144511 11 19 0.0 3.2 0.00 0.08 0.00 94 991.7
20260506144010 10 19 0.0 3.2 0.00 0.08 0.00 95 991.7
20260506143510 10 19 0.0 3.2 0.00 0.08 0.00 94 991.6
20260506143010 9 19 1.6 3.2 0.00 0.08 0.00 94 991.5
20260506142508 9 19 0.0 0.0 0.00 0.08 0.00 94 991.5
20260506142007 9 19 0.0 3.2 0.00 0.08 0.00 94 991.5
20260506141506 8 19 1.6 3.2 0.00 0.08 0.00 94 991.6
20260506141006 8 19 0.0 0.0 0.00 0.08 0.00 94 991.6
20260506140506 8 19 0.0 0.0 0.00 0.08 0.00 94 991.5
20260506140005 8 19 0.0 0.0 0.00 0.08 0.00 94 991.5
20260506135504 8 19 0.0 0.0 0.00 0.08 0.00 94 991.4
20260506135006 8 19 0.0 0.0 0.00 0.08 0.00 94 991.4
20260506134510 8 19 0.0 0.0 0.00 0.08 0.00 94 991.4
20260506134003 8 19 0.0 0.0 0.00 0.08 0.00 94 991.4
20260506133503 8 19 0.0 0.0 0.00 0.08 0.00 93 991.4
20260506133002 8 19 0.0 0.0 0.00 0.08 0.00 94 991.4
20260506132600 8 19 0.0 0.0 0.00 0.08 0.00 94 991.4
20260506132100 8 19 0.0 0.0 0.00 0.08 0.00 94 991.2
20260506131612 8 19 0.0 0.0 0.00 0.08 0.00 94 991.3
20260506131059 8 19 0.0 1.6 0.00 0.08 0.00 94 991.2
20260506130559 8 19 0.0 1.6 0.00 0.08 0.00 94 991.2
20260506130058 8 19 0.0 1.6 0.00 0.08 0.00 93 991.2
20260506125556 8 19 0.0 1.6 0.00 0.08 0.00 93 991.1
20260506125056 8 19 0.0 0.0 0.00 0.08 0.00 93 991.0
20260506124556 8 19 0.0 3.2 0.00 0.08 0.00 93 991.1
20260506124057 8 19 0.0 3.2 0.00 0.08 0.00 93 991.1
20260506123555 8 265 0.0 0.0 0.00 0.08 0.00 93 991.1
20260506123056 8 209 0.0 0.0 0.00 0.08 0.00 93 991.1
20260506122555 8 209 0.0 0.0 0.00 0.08 0.00 93 991.0
20260506122054 8 209 0.0 0.0 0.00 0.08 0.00 93 991.0
20260506121604 8 209 0.0 0.0 0.00 0.08 0.00 93 991.0
20260506121054 8 209 0.0 0.0 0.00 0.08 0.00 93 991.0
20260506120554 8 209 0.0 0.0 0.00 0.08 0.00 93 990.9
20260506120054 8 209 0.0 0.0 0.00 0.08 0.00 93 990.9
20260506115554 8 209 0.0 0.0 0.00 0.08 0.00 93 990.8
20260506115053 8 209 0.0 0.0 0.00 0.08 0.00 93 990.9
20260506114555 8 209 0.0 0.0 0.00 0.08 0.00 92 990.8
20260506114052 8 209 0.0 0.0 0.00 0.08 0.00 92 990.8
20260506113552 8 209 0.0 0.0 0.00 0.08 0.00 92 990.8
20260506113052 8 209 0.0 0.0 0.00 0.08 0.00 93 990.8
20260506112551 8 209 0.0 0.0 0.00 0.08 0.00 93 990.8
20260506112051 8 209 0.0 0.0 0.00 0.08 0.00 92 990.9
20260506111609 8 209 0.0 0.0 0.00 0.08 0.00 92 990.8
20260506111051 8 209 0.0 0.0 0.00 0.08 0.00 92 990.7
20260506110553 8 209 0.0 0.0 0.00 0.08 0.00 93 990.7
20260506110053 8 209 0.0 0.0 0.00 0.08 0.00 92 990.7
20260506105550 8 209 0.0 0.0 0.00 0.08 0.00 93 990.7
20260506105050 8 209 0.0 0.0 0.00 0.08 0.00 93 990.7
20260506104550 8 209 0.0 0.0 0.00 0.08 0.00 93 990.7
20260506104053 8 209 0.0 0.0 0.00 0.08 0.00 92 990.8
20260506103549 8 209 0.0 0.0 0.00 0.08 0.00 92 990.7
20260506103049 8 209 0.0 0.0 0.00 0.08 0.00 92 990.6
20260506102550 9 209 0.0 0.0 0.00 0.08 0.00 92 990.7
20260506102051 9 209 0.0 0.0 0.00 0.08 0.00 92 990.6
20260506101546 9 209 0.0 0.0 0.00 0.08 0.00 93 990.6
20260506101047 9 209 0.0 0.0 0.00 0.08 0.00 92 990.6
20260506100546 9 209 0.0 0.0 0.00 0.08 0.00 92 990.6
20260506100048 9 209 0.0 0.0 0.00 0.08 0.00 92 990.7
20260506095546 9 209 0.0 0.0 0.00 0.08 0.00 92 990.6
20260506095048 9 209 0.0 0.0 0.00 0.08 0.00 92 990.7
20260506094546 9 209 0.0 0.0 0.00 0.08 0.00 92 990.8
20260506094046 9 209 0.0 0.0 0.00 0.08 0.00 92 990.7
20260506093550 9 209 0.0 0.0 0.00 0.08 0.00 92 990.8
20260506093052 9 209 0.0 0.0 0.00 0.08 0.00 92 990.7
20260506092544 9 209 0.0 0.0 0.00 0.08 0.00 92 990.8
20260506092046 9 209 0.0 0.0 0.00 0.08 0.00 92 990.8
20260506091544 9 209 0.0 0.0 0.00 0.08 0.00 92 990.8
20260506091044 9 209 0.0 0.0 0.00 0.08 0.00 91 990.9
20260506090546 9 209 0.0 0.0 0.00 0.08 0.00 91 991.0
20260506090041 10 209 0.0 0.0 0.00 0.08 0.00 91 991.0
20260506085541 10 209 0.0 0.0 0.00 0.08 0.00 92 991.1
20260506085041 10 209 0.0 0.0 0.00 0.08 0.00 92 991.0
20260506084541 10 209 0.0 0.0 0.00 0.08 0.00 92 991.0
20260506084041 10 209 0.0 0.0 0.00 0.08 0.00 92 991.1
20260506083539 10 209 0.0 0.0 0.00 0.08 0.00 92 991.0
20260506083046 10 209 0.0 0.0 0.00 0.08 0.00 92 991.0
20260506082540 10 209 0.0 0.0 0.00 0.08 0.00 91 990.9
20260506082038 10 209 0.0 0.0 0.00 0.08 0.00 91 991.1
20260506081546 10 209 0.0 0.0 0.00 0.08 0.00 91 991.0
20260506081037 10 209 0.0 0.0 0.00 0.08 0.00 91 990.9
20260506080540 10 209 0.0 0.0 0.00 0.08 0.00 91 990.9
20260506073035 10 209 0.0 0.0 0.00 0.08 0.00 90 990.8
20260506072532 10 209 0.0 0.0 0.00 0.08 0.00 90 990.8
20260506072033 10 209 0.0 0.0 0.00 0.08 0.00 90 990.7
20260506071533 10 209 0.0 0.0 0.00 0.08 0.00 90 990.5
20260506071029 10 209 0.0 0.0 0.00 0.08 0.00 90 990.6
20260506070529 10 209 0.0 0.0 0.00 0.08 0.00 90 990.5
20260506062025 11 209 0.0 0.0 0.00 0.08 0.08 89 989.9
20260506061533 11 209 0.0 3.2 0.00 0.08 0.08 88 990.0
20260506061024 11 209 0.0 3.2 0.00 0.08 0.08 88 989.9
20260506060524 11 209 0.0 0.0 0.00 0.08 0.08 88 989.9
20260506051024 12 209 0.0 0.0 0.00 0.08 0.08 86 989.5
20260506050519 12 209 0.0 3.2 0.00 0.08 0.08 85 989.4
20260506045019 12 209 0.0 0.0 0.00 0.08 0.08 84 989.4
20260506044520 12 209 0.0 0.0 0.00 0.08 0.08 83 989.2
20260506044022 13 209 0.0 3.2 0.00 0.08 0.08 84 989.3
20260506043517 13 209 0.0 3.2 0.00 0.08 0.08 84 989.1
20260506043017 13 209 0.0 3.2 0.00 0.08 0.08 84 989.0
20260506042516 13 209 0.0 3.2 0.00 0.08 0.08 84 989.1
20260506042017 13 209 0.0 4.8 0.00 0.08 0.08 84 989.0
20260506041516 13 209 1.6 4.8 0.00 0.08 0.08 83 989.0